[[{"header":{"parameterUnit":"m.s-1","parameterCategory":1,"la1":30.2991,"la2":30.254,"lo1":-89.0895,"lo2":-89.0444,"dy":0.0017,"dx":0.0017,"nx":28,"ny":28,"refTime":"2024-02-22T09:00:00:Z","depth":0,"parameterNumber":2,"parameterNumberName":"U-component_of_WINDS"},"data":[0,0,0,0,0,0,0,0,0,0,0,0,0,0,0,0,0,0,0,0,0,0,0,0,0,0,0,0,0,0,0,0,0,0,0,0,0,0,0,0,0,0,0,0,0,0,0,0,0,0,0,0,0,0,0,0,0,0,3.2973,3.2973,0,3.2978,3.2978,3.2978,3.2956,3.2955,3.2954,3.2954,3.2961,3.2962,3.2963,0,0,0,0,0,0,0,0,0,0,0,0,0,3.2951,3.2951,3.2973,3.2973,3.2973,3.2978,3.2978,3.2978,3.2956,3.2955,3.2954,3.2953,3.2961,3.2962,3.2963,0,0,0,0,0,0,0,0,0,0,0,0,0,3.2958,3.2951,3.2973,3.2963,3.2962,3.2978,3.2978,3.2978,3.2956,3.2955,3.2954,3.2953,3.2961,3.2962,3.2963,3.299,0,0,3.2967,3.2967,0,0,0,0,0,0,0,0,3.2958,3.2959,3.2964,3.2963,3.2962,3.2965,3.2973,3.2982,3.2956,3.2958,3.2954,3.2953,3.2963,3.2964,3.2968,3.2991,3.2991,3.2967,3.2968,3.2968,3.2968,0,0,0,0,0,0,0,3.2957,3.2959,3.2975,3.2964,3.2963,3.296,3.296,3.2974,3.2966,3.2958,3.2956,3.2957,3.2963,3.2966,3.2968,3.2991,3.2967,3.2968,3.2969,3.2969,3.3042,3.3043,0,0,0,0,0,0,3.2958,3.2959,3.2975,3.2975,3.2958,3.2961,3.2961,3.2965,3.2966,3.2965,3.2958,3.2956,3.2965,3.2966,3.2968,3.3003,3.2968,3.2969,3.297,3.3041,3.3042,3.3043,0,0,0,0,0,0,3.2957,3.2959,3.2975,3.2967,3.2968,3.2962,3.2967,3.2966,3.2969,3.2966,3.2965,3.2963,3.2964,3.2966,3.2986,3.3002,3.297,3.2971,3.3039,3.3041,3.3043,3.3071,0,0,0,0,0,0,3.2957,3.2959,3.2968,3.2967,3.2969,3.2991,3.2968,3.2967,3.2971,3.2969,3.297,3.297,3.2963,3.2984,3.2987,3.3003,3.2972,3.3038,3.304,3.3042,3.3068,3.3073,3.3077,0,0,0,0,0,3.2956,3.2975,3.2968,3.2971,3.2979,3.2992,3.2993,3.2985,3.2972,3.2983,3.2981,3.297,3.3,3.2986,3.2989,3.3006,3.3037,3.3039,3.3042,3.3066,3.3072,3.3077,0,0,0,0,0,0,3.2978,3.2975,3.2967,3.2986,3.299,3.2988,3.3,3.2991,3.2998,3.2996,3.2986,3.2987,3.3009,3.301,3.2994,3.3035,3.3017,3.302,3.3034,3.304,3.3044,3.3044,3.2973,0,0,0,0,0,3.2985,3.2994,3.2991,3.3009,3.3011,3.3005,3.301,3.3004,3.3008,3.3009,3.3009,3.3014,3.3025,3.3032,3.3042,3.3069,3.307,3.3082,3.3087,3.3091,3.3094,3.3112,3.3118,3.3052,3.3052,3.3052,0,0,3.3,3.2999,3.3005,3.3013,3.3015,3.3027,3.3006,3.3019,3.3028,3.3011,3.303,3.3031,3.3036,3.306,3.3071,3.3061,3.3113,3.3094,3.3097,3.3098,3.3116,3.3122,3.3127,3.3054,3.3054,3.3054,0,0,3.3033,3.3032,3.3048,3.3051,3.3054,3.3051,3.3056,3.3056,3.3056,3.3075,3.3064,3.3076,3.3094,3.3099,3.3104,3.3145,3.3136,3.3149,3.3172,3.319,3.3196,3.32,3.3217,3.3223,3.3152,3.3152,3.3152,0,3.3051,3.3066,3.3058,3.3072,3.3077,3.3063,3.3081,3.3084,3.3091,3.3096,3.3086,3.3111,3.3113,3.3141,3.3151,3.3155,3.3162,3.3148,3.3195,3.32,3.3204,3.322,3.3226,3.3153,3.3153,3.3153,3.3153,0,3.309,3.3102,3.3115,3.3122,3.3129,3.3145,3.3141,3.3149,3.3144,3.3143,3.3165,3.3168,3.318,3.3186,3.318,3.3213,3.3208,3.3196,3.3177,3.3212,3.3227,3.3233,3.3156,3.3155,3.3155,3.3154,0,0,3.3134,3.3139,3.3144,3.3149,3.3154,3.3164,3.3181,3.3193,3.3202,3.3208,3.3224,3.3242,3.3233,3.3239,3.3234,3.325,3.3286,3.3237,3.3237,3.3248,3.3327,3.3336,3.3343,3.328,3.3281,3.3282,3.3327,0,3.3168,3.3196,3.3191,3.3219,3.3232,3.3221,3.3237,3.3243,3.3244,3.3256,3.3258,3.3272,3.3257,3.3261,3.3276,3.3278,3.3302,3.3275,3.3297,3.3298,3.3297,3.3351,3.3359,3.3402,3.3333,3.3334,3.3334,0,3.321,3.3219,3.3249,3.3256,3.3261,3.3275,3.3287,3.3299,3.3307,3.3307,3.3316,3.331,3.3331,3.3312,3.3342,3.3324,3.3333,3.3336,3.3338,3.334,3.3319,3.3356,3.3415,3.3422,3.3343,3.3343,3.3342,0,3.3243,3.3262,3.3283,3.3288,3.3295,3.3306,3.331,3.3317,3.3326,3.3338,3.3344,3.3358,3.3366,3.3379,3.3378,3.3364,3.341,3.339,3.3412,3.3413,3.3422,3.3422,3.3485,3.3427,3.3427,3.3426,3.3426,0,3.3281,3.33,3.3298,3.3311,3.3334,3.333,3.3353,3.3356,3.3363,3.3379,3.3371,3.3386,3.3383,3.34,3.34,3.3427,3.343,3.3432,3.3432,3.3433,3.3433,3.344,3.3437,3.3428,3.3428,3.3427,3.3427,0,3.332,3.3319,3.3342,3.3348,3.3351,3.3367,3.3374,3.3388,3.339,3.341,3.3415,3.3417,3.3437,3.3437,3.3459,3.3459,3.3493,3.3489,3.349,3.3489,3.3513,3.3511,3.3583,3.3593,3.3527,3.3528,3.3528,0,3.3345,3.336,3.3369,3.3378,3.3383,3.3399,3.3408,3.3406,3.3417,3.343,3.3443,3.3462,3.3476,3.3509,3.3514,3.3532,3.3529,3.3553,3.3532,3.3534,3.3532,3.3532,3.3535,3.3557,3.3558,3.3559,3.3559,0,3.339,3.339,3.3403,3.3418,3.343,3.3441,3.3452,3.3461,3.346,3.3473,3.3493,3.3505,3.3529,3.3548,3.3567,3.3573,3.3568,3.3566,3.3573,3.3574,3.3575,3.3577,3.3503,3.3564,3.3564,3.3563,3.3563,3.3563,3.3424,3.3438,3.3447,3.3464,3.3472,3.3483,3.3498,3.3502,3.3518,3.3537,3.3535,3.3558,3.3571,3.3595,3.3604,3.3624,3.3616,3.3624,3.3627,3.3629,3.3633,3.3572,3.3627,3.3627,3.3627,3.3626,3.3626,0,3.347,3.3477,3.3492,3.3508,3.3522,3.3515,3.3528,3.3541,3.3561,3.3573,3.3588,3.3613,3.3634,3.3642,3.3663,3.3677,3.3675,3.3683,3.3682,3.3685,3.3638,3.3631,3.3684,3.3684,3.3684,3.3684,3.3684,3.3684,3.3496,3.3521,3.3522,3.3553,3.3559,3.3581,3.359,3.3601,3.3611,3.3639,3.3656,3.3662,3.3674,3.3696,3.3716,3.3718,3.3727,3.3736,3.3737,3.3693,3.3687,3.3682,3.3675,3.3737,3.3738,3.3783,3.3783,3.3784]},{"header":{"parameterUnit":"m.s-1","parameterCategory":1,"la1":30.2991,"la2":30.254,"lo1":-89.0895,"lo2":-89.0444,"dy":0.0017,"dx":0.0017,"nx":28,"ny":28,"refTime":"2024-02-22T09:00:00:Z","depth":0,"parameterNumber":3,"parameterNumberName":"V-component_of_WINDS"},"data":[0,0,0,0,0,0,0,0,0,0,0,0,0,0,0,0,0,0,0,0,0,0,0,0,0,0,0,0,0,0,0,0,0,0,0,0,0,0,0,0,0,0,0,0,0,0,0,0,0,0,0,0,0,0,0,0,0,0,0.7365,0.7366,0,0.7462,0.7463,0.7464,0.7513,0.7513,0.7513,0.7513,0.7615,0.7618,0.7621,0,0,0,0,0,0,0,0,0,0,0,0,0,0.7225,0.7227,0.7365,0.7366,0.7367,0.7462,0.7463,0.7465,0.7513,0.7513,0.7513,0.7513,0.7615,0.7618,0.7621,0,0,0,0,0,0,0,0,0,0,0,0,0,0.73,0.7228,0.7365,0.7403,0.7408,0.7462,0.7463,0.7465,0.7513,0.7513,0.7513,0.7513,0.7614,0.7617,0.7621,0.7646,0,0,0.7634,0.7636,0,0,0,0,0,0,0,0,0.7296,0.7305,0.7396,0.7401,0.7406,0.7476,0.7451,0.7526,0.7513,0.7473,0.7513,0.7514,0.7569,0.7577,0.7595,0.765,0.7655,0.7634,0.7637,0.7638,0.7639,0,0,0,0,0,0,0,0.7291,0.7301,0.7404,0.7398,0.7403,0.7416,0.7427,0.7466,0.752,0.7477,0.7481,0.7491,0.7572,0.7591,0.7598,0.7656,0.7634,0.7638,0.764,0.7642,0.7738,0.7738,0,0,0,0,0,0,0.7279,0.7297,0.74,0.7406,0.735,0.7419,0.7431,0.7453,0.752,0.753,0.7491,0.7493,0.7584,0.7593,0.7601,0.7635,0.7638,0.7642,0.7644,0.7738,0.7738,0.7738,0,0,0,0,0,0,0.7276,0.7288,0.7397,0.7353,0.7368,0.7421,0.7446,0.7455,0.7474,0.753,0.7541,0.7501,0.7584,0.7596,0.7634,0.7639,0.7644,0.7648,0.7737,0.7738,0.7738,0.7701,0,0,0,0,0,0,0.7271,0.7286,0.7295,0.7352,0.737,0.7427,0.7446,0.7457,0.7481,0.7485,0.7542,0.7552,0.7585,0.7628,0.7638,0.7645,0.7651,0.7737,0.7737,0.7738,0.7702,0.77,0.7698,0,0,0,0,0,0.7266,0.7281,0.7295,0.7308,0.7382,0.7427,0.7437,0.7474,0.7481,0.7491,0.7527,0.755,0.7637,0.7632,0.7644,0.7651,0.7737,0.7737,0.7738,0.7703,0.7701,0.7698,0,0,0,0,0,0,0.7224,0.729,0.7306,0.734,0.7377,0.7435,0.7449,0.747,0.7508,0.7509,0.7556,0.7568,0.7603,0.7631,0.7624,0.7679,0.7689,0.7692,0.7659,0.7657,0.7655,0.7648,0.7654,0,0,0,0,0,0.7219,0.7249,0.7305,0.7329,0.7347,0.7395,0.7416,0.7441,0.7482,0.7499,0.7538,0.7577,0.7614,0.7637,0.7674,0.7707,0.772,0.7718,0.7716,0.7714,0.7716,0.7737,0.7736,0.7739,0.7739,0.7739,0,0,0.7208,0.7247,0.7264,0.7322,0.7354,0.7385,0.7408,0.744,0.7463,0.7504,0.7543,0.7573,0.762,0.7656,0.7674,0.7681,0.7718,0.7714,0.7712,0.7716,0.7737,0.7736,0.7736,0.7739,0.7739,0.7739,0,0,0.7204,0.7237,0.7261,0.7293,0.7341,0.7372,0.7378,0.7433,0.7454,0.7493,0.7524,0.7554,0.7616,0.7648,0.7673,0.7682,0.7705,0.7693,0.7683,0.7702,0.7702,0.7702,0.7706,0.7707,0.7695,0.7694,0.7694,0,0.7185,0.7233,0.7271,0.7302,0.7327,0.7364,0.739,0.7419,0.7476,0.7493,0.75,0.7578,0.7613,0.7657,0.7659,0.7678,0.7687,0.7687,0.7699,0.7699,0.77,0.7704,0.7706,0.7693,0.7693,0.7693,0.7693,0,0.7207,0.7239,0.7253,0.7307,0.7334,0.7362,0.7406,0.7428,0.7452,0.7483,0.7523,0.7566,0.7612,0.7624,0.7648,0.7673,0.7675,0.769,0.7701,0.7697,0.7702,0.7704,0.769,0.7691,0.7691,0.7692,0,0,0.718,0.7255,0.7259,0.7285,0.734,0.7367,0.7397,0.7441,0.746,0.7498,0.7525,0.7577,0.759,0.7618,0.7646,0.7663,0.7668,0.7676,0.7677,0.7673,0.7699,0.7688,0.769,0.7683,0.7684,0.7684,0.7696,0,0.7185,0.7239,0.7275,0.7315,0.7346,0.7382,0.7408,0.7446,0.7476,0.7507,0.7541,0.7577,0.7592,0.7609,0.7627,0.7664,0.7674,0.7663,0.771,0.7711,0.7697,0.7692,0.7681,0.7689,0.7698,0.7698,0.7698,0,0.7198,0.7234,0.7277,0.733,0.7345,0.7367,0.7411,0.744,0.7484,0.7505,0.7536,0.7564,0.7598,0.7607,0.7655,0.7647,0.7668,0.7689,0.769,0.7697,0.7705,0.7699,0.7693,0.7694,0.7702,0.7701,0.7701,0,0.7174,0.7235,0.7268,0.7289,0.7351,0.7366,0.7393,0.7437,0.7461,0.75,0.7517,0.7559,0.7583,0.7615,0.7655,0.7657,0.7699,0.7711,0.7719,0.7717,0.7726,0.7725,0.7724,0.7739,0.7739,0.7739,0.7739,0,0.7176,0.7201,0.7259,0.7279,0.7309,0.7351,0.7379,0.7409,0.7448,0.7476,0.751,0.7536,0.7586,0.7619,0.765,0.7686,0.7696,0.7714,0.7722,0.7712,0.7709,0.7727,0.7727,0.7739,0.7739,0.7739,0.7739,0,0.7155,0.7194,0.7234,0.7289,0.7304,0.7323,0.7372,0.7394,0.7425,0.7461,0.7471,0.7521,0.7561,0.7604,0.7658,0.7679,0.7714,0.7725,0.7699,0.7704,0.7709,0.7708,0.7719,0.7723,0.7734,0.7734,0.7734,0,0.7154,0.7174,0.7231,0.7252,0.7278,0.7311,0.7336,0.7378,0.7403,0.7455,0.7471,0.7513,0.7549,0.7612,0.7654,0.7696,0.7709,0.771,0.7715,0.7704,0.7709,0.7708,0.7711,0.7708,0.7707,0.7707,0.7707,0,0.7148,0.7166,0.72,0.7241,0.727,0.7305,0.7341,0.7356,0.7406,0.7432,0.7473,0.7501,0.7556,0.7598,0.7646,0.7675,0.77,0.7705,0.7709,0.7698,0.7683,0.7692,0.7694,0.7704,0.7705,0.7705,0.7705,0.7705,0.7137,0.7157,0.72,0.7238,0.7269,0.7302,0.7326,0.736,0.7394,0.7442,0.7465,0.7506,0.7551,0.7616,0.7645,0.7678,0.7686,0.7691,0.7693,0.7694,0.7692,0.7677,0.7687,0.7687,0.7687,0.7687,0.7688,0,0.7133,0.7163,0.7197,0.7246,0.7275,0.7295,0.7336,0.736,0.7395,0.7434,0.7468,0.7516,0.7557,0.7602,0.7646,0.7664,0.7677,0.7674,0.7674,0.768,0.7682,0.7674,0.7663,0.7663,0.7663,0.7663,0.7663,0.7663,0.7135,0.7169,0.7193,0.7244,0.7274,0.7314,0.7335,0.7367,0.7398,0.7449,0.7482,0.7511,0.7553,0.76,0.7639,0.7652,0.7667,0.7661,0.7677,0.7678,0.768,0.7682,0.7675,0.7664,0.7664,0.7672,0.7672,0.7672]}]]